Voltar ao catálogo

COSMOS 2369

AtivoMilitarLEO
NORAD 26069·PAYLOAD·🇷🇺 Russia

Lançado Feb 3, 2000 de Baikonur Cosmodrome

Loading…

Próximas Passagens (próximas 24 horas)

TLE

AtualizadoSource: Space-Track

Época: Sep 14, 2026, 09:17 UTC

1 26069U 00006A   26257.38683231  .00000350  00000-0  20957-3 0  9999
2 26069  70.9941 124.3847 0010595 163.0930 197.0548 14.13901282636567

Acompanhe COSMOS 2369 em tempo real com AllMySat

Download on the App Store